TimeEDT,TemperatureF,Dew PointF,Humidity,Sea Level PressureIn,VisibilityMPH,Wind Direction,Wind SpeedMPH,Gust SpeedMPH,PrecipitationIn,Events,Conditions,WindDirDegrees,DateUTC
12:15 AM,69.8,59.0,68,29.91,10.0,West,11.5,16.1,N/A,,Mostly Cloudy,260,2013-05-11 04:15:00
12:35 AM,68.0,60.8,78,29.92,7.0,WSW,10.4,-,N/A,Rain-Thunderstorm,Thunderstorms and Rain,240,2013-05-11 04:35:00
12:55 AM,66.2,60.8,83,29.90,7.0,West,3.5,-,N/A,Rain-Thunderstorm,Light Thunderstorms and Rain,260,2013-05-11 04:55:00
1:15 AM,66.2,62.6,88,29.89,4.0,Calm,Calm,-,0.03,Rain,Heavy Rain,0,2013-05-11 05:15:00
1:35 AM,66.2,62.6,88,29.89,5.0,Calm,Calm,-,0.07,Rain,Rain,0,2013-05-11 05:35:00
1:55 AM,64.4,62.6,94,29.87,5.0,Calm,Calm,-,0.01,Rain,Rain,0,2013-05-11 05:55:00
2:15 AM,64.4,62.6,94,29.87,4.0,Calm,Calm,-,0.04,Rain,Rain,0,2013-05-11 06:15:00
2:35 AM,64.4,62.6,94,29.87,4.0,Calm,Calm,-,0.08,Rain,Rain,0,2013-05-11 06:35:00
2:55 AM,64.4,62.6,94,29.86,5.0,SSW,4.6,-,0.01,Rain,Rain,200,2013-05-11 06:55:00
3:15 AM,64.4,62.6,94,29.82,10.0,Calm,Calm,-,0.04,,Mostly Cloudy,0,2013-05-11 07:15:00
3:35 AM,64.4,60.8,88,29.84,7.0,SSW,3.5,-,0.05,,Mostly Cloudy,200,2013-05-11 07:35:00
3:55 AM,64.4,60.8,88,29.85,10.0,SSW,3.5,-,N/A,,Overcast,200,2013-05-11 07:55:00
4:15 AM,64.4,60.8,88,29.85,10.0,SSW,3.5,-,N/A,,Drizzle,210,2013-05-11 08:15:00
4:35 AM,64.4,60.8,88,29.84,10.0,Calm,Calm,-,N/A,,Light Drizzle,0,2013-05-11 08:35:00
4:55 AM,64.4,60.8,88,29.84,10.0,South,3.5,-,N/A,,Overcast,180,2013-05-11 08:55:00
5:15 AM,64.4,60.8,88,29.83,10.0,Calm,Calm,-,N/A,,Overcast,0,2013-05-11 09:15:00
5:35 AM,64.4,60.8,88,29.82,10.0,Calm,Calm,-,N/A,,Overcast,0,2013-05-11 09:35:00
5:55 AM,64.4,60.8,88,29.82,10.0,Calm,Calm,-,N/A,,Overcast,0,2013-05-11 09:55:00
6:15 AM,64.4,60.8,88,29.82,7.0,Calm,Calm,-,0.01,,Drizzle,0,2013-05-11 10:15:00
6:35 AM,64.4,60.8,88,29.81,10.0,SSW,3.5,-,0.01,,Light Drizzle,200,2013-05-11 10:35:00
6:45 AM,62.6,60.8,94,29.82,5.0,SSW,5.8,-,N/A,,Light Drizzle,210,2013-05-11 10:45:00
7:45 AM,64.4,60.8,88,29.83,5.0,SW,9.2,-,N/A,,Overcast,220,2013-05-11 11:45:00
8:45 AM,66.2,62.6,88,29.82,7.0,SW,10.4,-,N/A,,Overcast,220,2013-05-11 12:45:00
9:45 AM,68.0,62.6,83,29.81,10.0,SSW,9.2,17.3,N/A,,Overcast,210,2013-05-11 13:45:00
10:45 AM,66.2,62.6,88,29.80,10.0,South,9.2,16.1,N/A,,Overcast,190,2013-05-11 14:45:00
11:45 AM,68.0,62.6,83,29.80,10.0,SW,8.1,-,N/A,,Overcast,230,2013-05-11 15:45:00
12:45 PM,69.8,62.6,78,29.78,7.0,SW,9.2,16.1,N/A,,Overcast,220,2013-05-11 16:45:00
1:45 PM,71.6,62.6,73,29.74,10.0,SSW,9.2,-,N/A,,Overcast,200,2013-05-11 17:45:00
2:45 PM,71.6,62.6,73,29.72,10.0,SSW,9.2,-,N/A,,Overcast,210,2013-05-11 18:45:00
3:20 PM,69.8,62.6,78,29.72,0.8,West,3.5,-,N/A,Rain-Thunderstorm,Heavy Thunderstorms and Rain,270,2013-05-11 19:20:00
3:45 PM,62.6,59.0,88,29.74,3.0,WSW,17.3,32.2,N/A,Rain,Light Rain,250,2013-05-11 19:45:00
4:45 PM,66.2,62.6,88,29.74,10.0,West,6.9,-,N/A,,Mostly Cloudy,260,2013-05-11 20:45:00
5:45 PM,68.0,62.6,83,29.72,10.0,SSW,4.6,-,N/A,,Mostly Cloudy,200,2013-05-11 21:45:00
6:45 PM,66.2,62.6,88,29.72,10.0,South,4.6,-,N/A,,Mostly Cloudy,170,2013-05-11 22:45:00
7:45 PM,64.4,62.6,94,29.73,10.0,Calm,Calm,-,N/A,,Scattered Clouds,0,2013-05-11 23:45:00
8:45 PM,64.4,62.6,94,29.73,10.0,SW,4.6,-,N/A,,Mostly Cloudy,230,2013-05-12 00:45:00
9:45 PM,64.4,60.8,88,29.74,10.0,West,4.6,-,N/A,,Overcast,260,2013-05-12 01:45:00
10:55 PM,64.4,60.8,88,29.72,5.0,Calm,Calm,-,N/A,,Scattered Clouds,0,2013-05-12 02:55:00
11:15 PM,62.6,60.8,94,29.72,5.0,Calm,Calm,-,N/A,,Clear,0,2013-05-12 03:15:00
11:35 PM,62.6,60.8,94,29.72,7.0,Calm,Calm,-,N/A,,Clear,0,2013-05-12 03:35:00
11:55 PM,62.6,60.8,94,29.72,10.0,SSW,3.5,-,N/A,,Scattered Clouds,200,2013-05-12 03:55:00